Regional Weather Roundup
Issued by NWS

Home | Current Version | Previous Version | Graphics & Text | Print | Product List | Glossary On
Versions: 1 2 3 4 5 6 7 8 9 10 11 12 13 14 15 16 17 18 19 20 21 22 23 24 25 26 27 28 29 30 31 32 33 34 35 36 37 38 39 40 41 42 43 44 45 46 47 48 49 50
000
ASUS43 KLSX 060607
RWRMO

WEATHER SUMMARY FOR MISSOURI
NATIONAL WEATHER SERVICE SPRINGFIELD MO
100 AM CDT MON JUL 06 2015

NOTE: "FAIR" INDICATES FEW OR NO CLOUDS BELOW 12,000 FEET WITH NO
       SIGNIFICANT WEATHER AND/OR OBSTRUCTIONS TO VISIBILITY.
       CURRENT SKY AND/OR WEATHER CONDITIONS ARE NOT AVAILABLE FOR
       CHILLICOTHE AND FARMINGTON.

MOZ001>031-035>038-043-044-053-054-060700-
...NORTHERN AND WESTERN MISSOURI...

CITY           SKY/WX    TMP DP  RH WIND       PRES   REMARKS
KANSAS CTY INT CLOUDY    79  70  74 S13       29.90S
6HR MIN TEMP:  79; 6HR MAX TEMP:  86;

KANSAS C DTWN  MOCLDY    79  68  69 S8        29.90R
6HR MIN TEMP:  79; 6HR MAX TEMP:  89;

LEE`S SUMMIT   PTCLDY    75  66  73 S9        29.93S
6HR MIN TEMP:  75; 6HR MAX TEMP:  87;

ST JOSEPH      CLOUDY    81  72  74 S10       29.87R
6HR MIN TEMP:  81; 6HR MAX TEMP:  88;

CHILLICOTHE      N/A     78  72  81 S7        29.93R
6HR MIN TEMP:  78; 6HR MAX TEMP:  87;

KIRKSVILLE     PTCLDY    74  68  81 S10       29.96R
6HR MIN TEMP:  73; 6HR MAX TEMP:  83;


$$
MOZ066>068-077>081-088>096-101>105-060700-
...SOUTHWEST MISSOURI...

CITY           SKY/WX    TMP DP  RH WIND       PRES   REMARKS
SPRINGFIELD    CLEAR     71  68  90 S9        30.00S
6HR MIN TEMP:  71; 6HR MAX TEMP:  74;

JOPLIN         CLEAR     73  67  81 SE8       29.97R
6HR MIN TEMP:  73; 6HR MAX TEMP:  83; 6HR PCP: TRACE;


$$
MOZ032>034-039>042-045>050-055>058-069>072-060700-
...CENTRAL MISSOURI...

CITY           SKY/WX    TMP DP  RH WIND       PRES   REMARKS
COLUMBIA       CLEAR     74  71  91 S7        29.97S
6HR MIN TEMP:  74; 6HR MAX TEMP:  84;

JEFFERSON CITY CLEAR     76  71  85 SE5       29.96S
6HR MIN TEMP:  76; 6HR MAX TEMP:  85;

ROLLA          CLEAR     73  71  93 S9        29.99S
6HR MIN TEMP:  73; 6HR MAX TEMP:  82;

SEDALIA        CLEAR     73  67  81 S10       29.96S
6HR MIN TEMP:  73; 6HR MAX TEMP:  85;

WHITEMAN AFB   CLEAR     72  66  81 S10       29.93F
WARRENSBURG    CLEAR     72  64  78 S6        29.93S
OSAGE BEACH    CLEAR     73  68  83 S5        29.99R

$$
MOZ051-052-059>065-060700-
...EAST CENTRAL MISSOURI...

CITY           SKY/WX    TMP DP  RH WIND       PRES   REMARKS
ST LOUIS INTL  CLEAR     78  68  71 S6        30.00S
6HR MIN TEMP:  78; 6HR MAX TEMP:  85;

SPIRIT OF STL  CLEAR     75  70  84 S5        29.98S
6HR MIN TEMP:  75; 6HR MAX TEMP:  82;

ST CHARLES     CLEAR     74  69  85 CALM      29.99R HAZE
6HR MIN TEMP:  74; 6HR MAX TEMP:  82;


$$
MOZ072>076-082>087-097>100-106>115-060700-
...SOUTH CENTRAL AND SOUTHEAST MISSOURI...

CITY           SKY/WX    TMP DP  RH WIND       PRES   REMARKS
CAPE GIRARDEAU PTCLDY    73  70  90 CALM      30.01F
6HR MIN TEMP:  72; 6HR MAX TEMP:  82;

FARMINGTON     CLEAR     70  68  94 S5        30.06S
6HR MIN TEMP:  70; 6HR MAX TEMP:  79;

POPLAR BLUFF   MOCLDY    75  73  93 S7        30.01F
6HR MIN TEMP:  74; 6HR MAX TEMP:  83;

WEST PLAINS    MOCLDY    74  71  91 S9        30.04F
6HR MIN TEMP:  74; 6HR MAX TEMP:  81;


$$


USA.gov is the U.S. government's official web portal to all federal, state and local government web resources and services.